Weather in Slubice

Poland     52°21′01″N   14°33′45″E
temp.,
°C
wind,
m/s
gust,
m/s
humid.,
%
clouds,
%
prec.,
mm/h
press.,
hPa
HPBL,
m
13 april, tue
tue1323:00+4wsw2366100 0.0 102657
02:00+2w2678100 0.0 1027134
05:000wnw248598 0.0 102878
08:00+2wnw367585 0.0 1028292
11:00+7wnw465049 0.0 10281247
14:00+9wnw5641100 0.0 10272275
17:00+9nw4742100 0.0 10261988
20:00+5nw2465100 0.1 102676
14 april, wed
wed1423:00+3nw3974100 0.0 1027223
02:00+2wnw3980100 0.0 1027302
05:000wnw3108698 0.0 1027312
08:00+1nw498072 0.0 1027416
11:00+6nw5655100 0.0 10271597
14:00+8nw4539100 0.1 10262188
17:00+9nnw4537100 0.0 10252086
20:00+4n3868100 0.1 1026244
15 april, thu
thu1523:00+2n3878100 0.0 1027204
02:00+1nnw3886100 0.0 1027256
05:00+1nnw3987100 0.0 1026330
08:00+2n4979100 0.0 1027564
11:00+5n6857100 0.0 10261487
14:00+4nnw6971100 0.1 10261158
17:00+3nnw61196100 1.3 1024824
20:00+3nnw61197100 2.9 1023909
16 april, fri
fri1623:00+3n4998100 1.5 1023728
02:00+4nne4996100 1.7 1023542
05:00+4n4896100 0.1 1023434
08:00+4nne4995100 0.2 1024395
11:00+5n3790100 0.0 1025350
14:00+10n456192 0.0 10241231
17:00+11n455795 0.0 10241354
20:00+6n510686 0.0 1024370
17 april, sat
sat1723:00+2n388565 0.0 1025181
02:00+1n359734 0.0 1025111
05:000nnw249771 0.0 102588
08:00+4n2396100 1.1 1023528
11:00+6n3484100 0.0 1024390
14:00+5n3490100 0.1 1024326
17:00+8n358299 0.0 1023659
20:00+6n359397 0.0 1024231